[[{"header":{"parameterUnit":"m.s-1","parameterCategory":1,"la1":30.2991,"la2":30.254,"lo1":-89.0895,"lo2":-89.0444,"dy":0.0017,"dx":0.0017,"nx":28,"ny":28,"refTime":"2024-02-07T09:00:00:Z","depth":0,"parameterNumber":2,"parameterNumberName":"U-component_of_WINDS"},"data":[0,0,0,0,0,0,0,0,0,0,0,0,0,0,0,0,0,0,0,0,0,0,0,0,0,0,0,0,0,0,0,0,0,0,0,0,0,0,0,0,0,0,0,0,0,0,0,0,0,0,0,0,0,0,0,0,0,0,-4.3396,-4.3397,0,-4.3488,-4.3489,-4.349,-4.3457,-4.3455,-4.3453,-4.3451,-4.3543,-4.3548,-4.3552,0,0,0,0,0,0,0,0,0,0,0,0,0,-4.319,-4.3194,-4.3395,-4.3397,-4.3398,-4.3487,-4.3489,-4.349,-4.3457,-4.3455,-4.3452,-4.345,-4.3542,-4.3547,-4.3552,0,0,0,0,0,0,0,0,0,0,0,0,0,-4.3281,-4.3195,-4.3395,-4.3392,-4.3393,-4.3487,-4.3489,-4.349,-4.3458,-4.3455,-4.3452,-4.3449,-4.354,-4.3547,-4.3553,-4.3655,0,0,-4.3573,-4.3576,0,0,0,0,0,0,0,0,-4.3275,-4.3288,-4.3392,-4.3393,-4.3394,-4.3458,-4.345,-4.3546,-4.3459,-4.3433,-4.3451,-4.3447,-4.3517,-4.3525,-4.3549,-4.3659,-4.3663,-4.3574,-4.3578,-4.358,-4.3582,0,0,0,0,0,0,0,-4.3269,-4.3284,-4.3432,-4.3393,-4.3394,-4.3386,-4.3395,-4.3468,-4.3491,-4.3435,-4.3433,-4.3444,-4.3517,-4.3543,-4.3551,-4.3665,-4.3573,-4.3579,-4.3583,-4.3586,-4.3863,-4.3866,0,0,0,0,0,0,-4.3263,-4.3279,-4.3429,-4.3435,-4.3326,-4.3392,-4.3403,-4.344,-4.349,-4.3495,-4.3447,-4.3443,-4.3533,-4.3544,-4.3554,-4.3676,-4.358,-4.3587,-4.359,-4.386,-4.3864,-4.3868,0,0,0,0,0,0,-4.3258,-4.3276,-4.3425,-4.3356,-4.3375,-4.3399,-4.3441,-4.3444,-4.3469,-4.3499,-4.3503,-4.3469,-4.3531,-4.3545,-4.363,-4.3679,-4.3589,-4.3595,-4.3856,-4.3861,-4.3866,-4.3922,0,0,0,0,0,0,-4.3253,-4.3275,-4.3314,-4.3357,-4.3378,-4.35,-4.3444,-4.3448,-4.3481,-4.3476,-4.3521,-4.3526,-4.353,-4.3621,-4.3637,-4.3687,-4.3601,-4.3851,-4.3858,-4.3864,-4.3915,-4.3928,-4.3939,0,0,0,0,0,-4.3245,-4.3326,-4.3316,-4.3335,-4.3428,-4.3503,-4.3515,-4.3518,-4.3485,-4.3524,-4.3544,-4.3524,-4.3672,-4.363,-4.3648,-4.37,-4.3848,-4.3856,-4.3864,-4.391,-4.3926,-4.3939,0,0,0,0,0,0,-4.3286,-4.3331,-4.3321,-4.3418,-4.3457,-4.3497,-4.3546,-4.3535,-4.3583,-4.3576,-4.3579,-4.3589,-4.3677,-4.3697,-4.365,-4.3802,-4.3755,-4.3767,-4.3784,-4.3799,-4.3811,-4.3803,-4.3606,0,0,0,0,0,-4.3307,-4.3365,-4.3401,-4.3483,-4.3503,-4.3522,-4.3554,-4.3554,-4.3594,-4.361,-4.3636,-4.3675,-4.373,-4.3766,-4.3819,-4.392,-4.3928,-4.3964,-4.3976,-4.3986,-4.3995,-4.4049,-4.4065,-4.3893,-4.3893,-4.3893,0,0,-4.3349,-4.3381,-4.3417,-4.3492,-4.3522,-4.3581,-4.3536,-4.36,-4.3643,-4.362,-4.3701,-4.3722,-4.3766,-4.3859,-4.3902,-4.3879,-4.4045,-4.3995,-4.4003,-4.4007,-4.4058,-4.4075,-4.4089,-4.3898,-4.3897,-4.3896,0,0,-4.3456,-4.3487,-4.3558,-4.359,-4.3636,-4.3649,-4.3666,-4.3709,-4.3721,-4.3804,-4.3788,-4.384,-4.3935,-4.3967,-4.3995,-4.4117,-4.41,-4.4134,-4.4194,-4.4247,-4.426,-4.4272,-4.4314,-4.4329,-4.4144,-4.4144,-4.4144,0,-4.3502,-4.3591,-4.3596,-4.3662,-4.3695,-4.3678,-4.375,-4.3781,-4.3842,-4.3865,-4.3839,-4.3959,-4.3987,-4.4087,-4.4117,-4.4142,-4.4161,-4.4128,-4.4258,-4.427,-4.4281,-4.4321,-4.4337,-4.4148,-4.4147,-4.4147,-4.4147,0,-4.3645,-4.3707,-4.3759,-4.3819,-4.3859,-4.3927,-4.3942,-4.3982,-4.3979,-4.3994,-4.4078,-4.4113,-4.4172,-4.4196,-4.4194,-4.4296,-4.4281,-4.4257,-4.421,-4.4301,-4.4339,-4.4354,-4.4153,-4.4152,-4.4151,-4.415,0,0,-4.3777,-4.3841,-4.386,-4.3887,-4.3938,-4.3986,-4.4055,-4.4113,-4.4146,-4.419,-4.4246,-4.4328,-4.4307,-4.434,-4.4341,-4.4388,-4.4481,-4.4359,-4.436,-4.4378,-4.4594,-4.461,-4.4627,-4.4472,-4.4475,-4.4477,-4.459,0,-4.3886,-4.4006,-4.4013,-4.4122,-4.4179,-4.4165,-4.4225,-4.4262,-4.4279,-4.433,-4.4348,-4.4405,-4.4374,-4.4393,-4.4439,-4.446,-4.4524,-4.4452,-4.4522,-4.4525,-4.4509,-4.4647,-4.4664,-4.4769,-4.4605,-4.4607,-4.4609,0,-4.4028,-4.4077,-4.4192,-4.4236,-4.426,-4.4313,-4.4368,-4.4417,-4.446,-4.4469,-4.4506,-4.4502,-4.4572,-4.4525,-4.462,-4.4571,-4.4601,-4.4616,-4.462,-4.4624,-4.457,-4.4653,-4.4802,-4.4817,-4.4633,-4.4631,-4.4629,0,-4.4111,-4.4205,-4.4286,-4.431,-4.4364,-4.4402,-4.4426,-4.4466,-4.4501,-4.4549,-4.4572,-4.4627,-4.4657,-4.47,-4.471,-4.4676,-4.4806,-4.476,-4.4814,-4.4813,-4.4839,-4.4837,-4.4993,-4.4863,-4.4863,-4.4863,-4.4862,0,-4.423,-4.43,-4.4323,-4.4373,-4.4451,-4.446,-4.4537,-4.4558,-4.4595,-4.4647,-4.464,-4.469,-4.4702,-4.4754,-4.4763,-4.484,-4.4854,-4.4863,-4.4864,-4.4862,-4.486,-4.4879,-4.4871,-4.4867,-4.4866,-4.4865,-4.4864,0,-4.4333,-4.4352,-4.4439,-4.4484,-4.4497,-4.4552,-4.459,-4.4637,-4.4654,-4.4721,-4.4738,-4.4764,-4.4825,-4.4841,-4.4914,-4.492,-4.501,-4.5006,-4.4995,-4.4994,-4.5047,-4.504,-4.5217,-4.524,-4.5098,-4.51,-4.5101,0,-4.4407,-4.446,-4.4512,-4.4547,-4.4573,-4.463,-4.4666,-4.4678,-4.4715,-4.477,-4.481,-4.4871,-4.4919,-4.5018,-4.5043,-4.5099,-4.5094,-4.5152,-4.5102,-4.5098,-4.5092,-4.5087,-4.5092,-4.516,-4.5162,-4.5163,-4.5164,0,-4.4534,-4.4541,-4.4594,-4.4651,-4.4694,-4.4739,-4.4782,-4.4811,-4.4829,-4.4872,-4.4935,-4.4973,-4.5048,-4.5108,-4.5165,-4.5189,-4.5179,-4.5181,-4.5196,-4.5192,-4.5183,-4.5187,-4.5018,-4.5175,-4.5174,-4.5173,-4.5173,-4.5172,-4.4623,-4.467,-4.4714,-4.4773,-4.4807,-4.4848,-4.4894,-4.4918,-4.497,-4.5033,-4.5037,-4.5105,-4.5148,-4.5223,-4.5251,-4.5304,-4.5286,-4.5309,-4.5314,-4.5318,-4.5322,-4.5178,-4.5315,-4.5315,-4.5314,-4.5314,-4.5314,0,-4.4748,-4.4776,-4.4831,-4.4892,-4.4938,-4.4928,-4.4975,-4.5014,-4.5075,-4.5116,-4.5165,-4.5237,-4.5296,-4.5326,-4.5384,-4.5421,-4.5418,-4.5436,-4.5431,-4.5437,-4.5335,-4.5315,-4.5437,-4.5437,-4.5437,-4.5437,-4.5437,-4.5437,-4.4818,-4.4897,-4.491,-4.5006,-4.5033,-4.51,-4.5128,-4.5166,-4.5198,-4.528,-4.5329,-4.5349,-4.5386,-4.5447,-4.55,-4.5508,-4.5529,-4.5548,-4.5553,-4.5457,-4.5444,-4.5432,-4.5413,-4.5553,-4.5553,-4.565,-4.5651,-4.5651]},{"header":{"parameterUnit":"m.s-1","parameterCategory":1,"la1":30.2991,"la2":30.254,"lo1":-89.0895,"lo2":-89.0444,"dy":0.0017,"dx":0.0017,"nx":28,"ny":28,"refTime":"2024-02-07T09:00:00:Z","depth":0,"parameterNumber":3,"parameterNumberName":"V-component_of_WINDS"},"data":[0,0,0,0,0,0,0,0,0,0,0,0,0,0,0,0,0,0,0,0,0,0,0,0,0,0,0,0,0,0,0,0,0,0,0,0,0,0,0,0,0,0,0,0,0,0,0,0,0,0,0,0,0,0,0,0,0,0,1.5633,1.5634,0,1.5714,1.5715,1.5716,1.5763,1.5764,1.5764,1.5764,1.5845,1.5847,1.5849,0,0,0,0,0,0,0,0,0,0,0,0,0,1.5519,1.5521,1.5633,1.5634,1.5635,1.5714,1.5715,1.5716,1.5763,1.5764,1.5764,1.5764,1.5844,1.5847,1.5849,0,0,0,0,0,0,0,0,0,0,0,0,0,1.5581,1.5521,1.5633,1.5668,1.5672,1.5714,1.5715,1.5716,1.5763,1.5764,1.5764,1.5764,1.5843,1.5846,1.5849,1.5861,0,0,1.5858,1.5859,0,0,0,0,0,0,0,0,1.5577,1.5585,1.5662,1.5666,1.567,1.5729,1.5705,1.5765,1.5763,1.5729,1.5764,1.5764,1.5806,1.5812,1.5826,1.5865,1.5868,1.5858,1.586,1.5862,1.5862,0,0,0,0,0,0,0,1.5573,1.5582,1.5665,1.5663,1.5668,1.568,1.5689,1.5716,1.5764,1.5732,1.5735,1.5744,1.5808,1.5823,1.5829,1.587,1.5858,1.5861,1.5863,1.5864,1.5925,1.5925,0,0,0,0,0,0,1.5563,1.5578,1.5662,1.5667,1.5624,1.5682,1.5692,1.571,1.5764,1.5773,1.5744,1.5746,1.5818,1.5825,1.5832,1.5851,1.5861,1.5864,1.5866,1.5925,1.5925,1.5925,0,0,0,0,0,0,1.5561,1.557,1.5659,1.5624,1.5636,1.5683,1.5703,1.5711,1.5727,1.5774,1.5782,1.5751,1.5819,1.5828,1.5854,1.5855,1.5866,1.5868,1.5925,1.5925,1.5925,1.5889,0,0,0,0,0,0,1.5557,1.5569,1.5574,1.5624,1.5638,1.568,1.5703,1.5713,1.5732,1.5735,1.5782,1.579,1.582,1.585,1.5857,1.5859,1.5871,1.5926,1.5925,1.5925,1.589,1.5887,1.5885,0,0,0,0,0,1.5553,1.5559,1.5574,1.5584,1.5645,1.568,1.5688,1.5722,1.5731,1.5737,1.5768,1.5789,1.5853,1.5852,1.5861,1.5863,1.5926,1.5925,1.5925,1.5891,1.5888,1.5885,0,0,0,0,0,0,1.5507,1.5566,1.5583,1.5606,1.5638,1.5688,1.5696,1.5717,1.5747,1.5749,1.579,1.58,1.5823,1.5846,1.5843,1.5879,1.5892,1.5893,1.5863,1.5861,1.5858,1.5852,1.5873,0,0,0,0,0,1.55,1.5524,1.5574,1.5589,1.5605,1.5648,1.5664,1.5688,1.5722,1.5736,1.5768,1.5801,1.5829,1.5846,1.5874,1.5894,1.5906,1.59,1.5898,1.5895,1.5896,1.5911,1.5909,1.5924,1.5924,1.5924,0,0,1.5484,1.552,1.5532,1.5581,1.5609,1.5633,1.5658,1.5682,1.5701,1.5739,1.5767,1.5792,1.5831,1.5855,1.5868,1.5875,1.5895,1.5895,1.5893,1.5895,1.591,1.5909,1.5908,1.5924,1.5924,1.5924,0,0,1.5469,1.5498,1.5515,1.5543,1.5585,1.5614,1.5618,1.5666,1.5685,1.5714,1.5744,1.5766,1.5813,1.584,1.586,1.5858,1.5879,1.5866,1.5852,1.5866,1.5865,1.5864,1.5865,1.5865,1.5867,1.5867,1.5866,0,1.5445,1.5483,1.5521,1.5544,1.5566,1.5603,1.5621,1.5646,1.5694,1.5709,1.5717,1.5778,1.5806,1.5838,1.5838,1.5853,1.5859,1.5861,1.5862,1.5862,1.5862,1.5863,1.5863,1.5865,1.5865,1.5865,1.5865,0,1.5452,1.5478,1.5487,1.5535,1.5557,1.5577,1.5619,1.5637,1.5659,1.5688,1.5718,1.5754,1.5791,1.58,1.5822,1.5836,1.584,1.5854,1.5868,1.5858,1.586,1.586,1.5862,1.5863,1.5863,1.5864,0,0,1.5408,1.5479,1.5482,1.5505,1.5555,1.5576,1.5599,1.5637,1.5652,1.5685,1.5706,1.5746,1.5761,1.5783,1.5808,1.582,1.5819,1.5834,1.5836,1.5831,1.5839,1.5828,1.5828,1.5834,1.5834,1.5834,1.5836,0,1.5401,1.5445,1.5481,1.5511,1.5537,1.5574,1.5594,1.5628,1.5655,1.5681,1.5711,1.574,1.5756,1.5771,1.5784,1.5816,1.5821,1.5817,1.5854,1.5855,1.5843,1.5829,1.5817,1.5817,1.5837,1.5837,1.5837,0,1.5399,1.5432,1.5465,1.5516,1.5528,1.5545,1.5584,1.5608,1.5647,1.5666,1.5693,1.572,1.5747,1.5758,1.5796,1.5792,1.581,1.5828,1.5829,1.5834,1.5845,1.5834,1.5818,1.5818,1.5839,1.5839,1.5838,0,1.5365,1.5418,1.5446,1.5464,1.5523,1.5535,1.556,1.56,1.5621,1.5655,1.5669,1.5705,1.5725,1.5752,1.5789,1.5793,1.5823,1.5837,1.5841,1.584,1.5845,1.5844,1.5832,1.5855,1.5855,1.5855,1.5855,0,1.5354,1.5373,1.5432,1.5449,1.5472,1.5514,1.5535,1.5564,1.5599,1.5622,1.5657,1.5678,1.5724,1.5751,1.578,1.5808,1.5816,1.5833,1.584,1.583,1.5828,1.5842,1.5843,1.5855,1.5855,1.5855,1.5855,0,1.532,1.536,1.5393,1.5447,1.5461,1.5476,1.5523,1.5541,1.5571,1.56,1.561,1.5657,1.5691,1.573,1.5776,1.5796,1.5822,1.5832,1.5809,1.5813,1.5815,1.5815,1.5812,1.5814,1.5835,1.5834,1.5834,0,1.5311,1.5327,1.5383,1.5402,1.5427,1.5456,1.5479,1.5521,1.5543,1.5591,1.5603,1.564,1.5672,1.5724,1.5762,1.5799,1.5811,1.5807,1.5816,1.5806,1.5812,1.5811,1.5813,1.5805,1.5804,1.5804,1.5804,0,1.529,1.531,1.5341,1.538,1.5407,1.5439,1.5473,1.5486,1.5536,1.5559,1.5595,1.5619,1.5668,1.5704,1.5746,1.5772,1.5796,1.5801,1.5804,1.5794,1.578,1.5789,1.5803,1.5801,1.5801,1.5801,1.5801,1.5801,1.5269,1.5286,1.5329,1.5363,1.5394,1.5426,1.5446,1.548,1.5511,1.5555,1.5578,1.5613,1.5655,1.5713,1.5738,1.5767,1.5775,1.5779,1.578,1.5781,1.5779,1.5775,1.5775,1.5775,1.5775,1.5775,1.5775,0,1.5251,1.5281,1.5313,1.536,1.5388,1.541,1.5449,1.5471,1.5502,1.5539,1.557,1.5612,1.5649,1.5691,1.573,1.5745,1.5757,1.5754,1.5753,1.5759,1.5768,1.5762,1.5743,1.5743,1.5743,1.5743,1.5743,1.5743,1.5245,1.5275,1.53,1.5347,1.5377,1.5413,1.5434,1.5464,1.5494,1.554,1.5571,1.5598,1.5638,1.5681,1.5715,1.5727,1.574,1.5733,1.5748,1.5756,1.5758,1.5761,1.5756,1.5736,1.5736,1.5737,1.5737,1.5737]}]]